This demonstration page uses our WeatherBlox Daily Observations layout. Learn more.

Left ArrowRight Arrow

41.86663, -103.66717

Hourly Observations for January 28, 2017

Temp ( °F °C ) Dew Point ( °F °C ) Humidity (%) Winds ( mph kmh ) Pressure ( in mb ) Visibility ( mi km ) Precip ( " mm )
12:53 am 00:53 Clear 16 -8.9 7 -13.9 67 67 WNW 12 19 30.39 1029 10 16 0.00 0.00
1:53 am 01:53 Clear 16 -8.9 7 -13.9 67 67 WNW 13 20 30.40 1029 10 16 0.00 0.00
2:53 am 02:53 Clear 17 -8.3 8 -13.3 68 68 NNW 9 15 30.40 1030 10 16 0.00 0.00
3:53 am 03:53 Clear 16 -8.9 7 -13.9 67 67 NW 9 15 30.40 1029 10 16 0.00 0.00
4:53 am 04:53 Clear 21 -6.1 10 -12.2 62 62 WNW 18 30 30.38 1029 10 16 0.00 0.00
5:53 am 05:53 Mostly Cloudy 25 -3.9 12 -11.1 58 58 WNW 16 26 30.37 1028 10 16 0.00 0.00
6:53 am 06:53 Cloudy 26 -3.3 13 -10.6 57 57 WNW 17 28 30.37 1029 10 16 0.00 0.00
7:53 am 07:53 Cloudy 27 -2.8 13 -10.6 55 55 WNW 17 28 30.37 1028 10 16 0.00 0.00
8:53 am 08:53 Cloudy 28 -2.2 14 -10 56 56 WNW 21 33 30.38 1029 10 16 0.00 0.00
9:53 am 09:53 Cloudy 31 -0.6 16 -8.9 54 54 W 20 31 30.37 1028 10 16 0.00 0.00
10:53 am 10:53 Cloudy 35 1.7 19 -7.2 52 52 WNW 21 33 30.37 1028 10 16 0.00 0.00
11:53 am 11:53 Mostly Cloudy 38 3.3 21 -6.1 51 51 W 23 37 30.33 1027 10 16 0.00 0.00
12:53 pm 12:53 Sunny 38 3.3 22 -5.6 52 52 WNW 18 30 30.32 1027 10 16 0.00 0.00
1:53 pm 13:53 Mostly Cloudy 39 3.9 22 -5.6 50 50 WNW 24 39 30.30 1026 10 16 0.00 0.00
2:53 pm 14:53 Sunny 42 5.6 23 -5 47 47 NW 22 35 30.29 1026 10 16 0.00 0.00
3:53 pm 15:53 Sunny 39 3.9 22 -5.6 50 50 W 16 26 30.32 1027 10 16 0.00 0.00
4:53 pm 16:53 Sunny 36 2.2 22 -5.6 57 57 W 17 28 30.32 1027 10 16 0.00 0.00
5:53 pm 17:53 Clear 34 1.1 22 -5.6 61 61 W 17 28 30.32 1027 10 16 0.00 0.00
6:53 pm 18:53 Clear 33 0.6 20 -6.7 58 58 W 16 26 30.34 1027 10 16 0.00 0.00
7:53 pm 19:53 Clear 32 0 19 -7.2 59 59 W 18 30 30.33 1027 10 16 0.00 0.00
8:53 pm 20:53 Clear 31 -0.6 18 -7.8 59 59 WNW 15 24 30.34 1027 10 16 0.00 0.00
9:53 pm 21:53 Clear 31 -0.6 18 -7.8 59 59 WNW 22 35 30.33 1027 10 16 0.00 0.00
10:53 pm 22:53 Clear 31 -0.6 18 -7.8 59 59 W 17 28 30.33 1027 10 16 0.00 0.00
11:53 pm 23:53 Clear 30 -1.1 18 -7.8 61 61 WNW 15 24 30.31 1026 10 16 0.00 0.00

Powered by AerisWeather